Flag for U.S.A. Weather past 2 weeks in Oceanside, California, U.S.A.

Now
79 °F

Sunny.


Feels Like: 81 °F
Forecast: 72 / 87 °F
Wind: No wind

Location: Oceanside Weather Reporting Station

Current Time: Sep 17, 2014 at 8:52:21 AM

Latest Report: Sep 17, 2014 at 7:52 AM


Visibility: 8 mi

Pressure: 29.73 "Hg

Humidity: 69%

Dew point: 68 °F

Location of OceansideLocation

Historic Weather in Oceanside — Graph

°F

Oceanside temperature yesterday

Maximum temperature yesterday: 100 °F (at 4:52 PM)
Minimum temperature yesterday: 68 °F (at 6:52 AM)
Average temperature yesterday: 82 °F

Past Weeks' High & Low Weather Summary

 TemperatureHumidityPressure
High100 °F (Sep 16, 4:52 PM)91% (Sep 12, 3:52 AM)29.92 "Hg (Sep 12, 3:52 AM)
Low61 °F (Sep 5, 1:52 AM)27% (Sep 16, 4:52 PM)29.65 "Hg (Sep 16, 5:52 PM)
Average75 °F69%29.79 "Hg
* Reported Sep 2 7:52 AM — Sep 17 7:52 AM, Oceanside, Weather by CustomWeather, © 2014

Note: Actual official high and low records may vary slightly from our data, if they occured in-between our weather recording intervals... More about our weather records

Advertising

Oceanside weather history for previous 24 hours

 ConditionsComfort  
Time TempWeatherWind HumidityBarometerVisibility
7:52 AM
Sep 17
79 °FSunny.No wind69%29.73 "Hg8 mi
6:52 AM73 °FClear.No wind79%29.71 "Hg7 mi
5:52 AM73 °FClear.No wind79%29.70 "Hg9 mi
4:52 AM74 °FClear.No wind79%29.70 "Hg9 mi
3:52 AM74 °FClear.No wind79%29.70 "Hg9 mi
2:52 AM75 °FPassing clouds.No wind79%29.70 "Hg9 mi
1:52 AM77 °FClear.5 mph77%29.70 "Hg9 mi
12:52 AM77 °FClear.3 mph77%29.72 "Hg9 mi
11:52 PM
Sep 16
80 °FPassing clouds.No wind64%29.72 "Hg8 mi
10:52 PM80 °FClear.3 mph62%29.72 "Hg10 mi
9:52 PM80 °FClear.5 mph60%29.71 "Hg9 mi
8:52 PM87 °FClear.5 mph48%29.70 "Hg10 mi
7:52 PM87 °FSunny.No wind39%29.69 "Hg10 mi
6:52 PM91 °FSunny.8 mph37%29.68 "Hg10 mi
5:52 PM96 °FSunny.9 mph32%29.65 "Hg10 mi
4:52 PM100 °FSunny.6 mph27%29.68 "Hg10 mi
3:52 PM88 °FPartly sunny.6 mph46%29.69 "Hg9 mi
2:52 PM87 °FSunny.10 mph48%29.69 "Hg10 mi
1:52 PM88 °FSunny.15 mph48%29.70 "Hg10 mi
12:52 PM89 °FSunny.8 mph41%29.71 "Hg10 mi
11:52 AM91 °FSunny.9 mph39%29.73 "Hg10 mi
10:52 AM87 °FSunny.9 mph45%29.75 "Hg9 mi
9:52 AM91 °FSunny.No wind34%29.75 "Hg10 mi
8:52 AM83 °FSunny.No wind50%29.76 "Hg10 mi
Weather by CustomWeather, © 2014

See weather overviewHow to use our weather pages